[[{"header":{"parameterUnit":"m.s-1","parameterCategory":1,"la1":30.2991,"la2":30.254,"lo1":-89.0895,"lo2":-89.0444,"dy":0.0017,"dx":0.0017,"nx":28,"ny":28,"refTime":"2024-04-04T03:00:00:Z","depth":0,"parameterNumber":2,"parameterNumberName":"U-component_of_WINDS"},"data":[0,0,0,0,0,0,0,0,0,0,0,0,0,0,0,0,0,0,0,0,0,0,0,0,0,0,0,0,0,0,0,0,0,0,0,0,0,0,0,0,0,0,0,0,0,0,0,0,0,0,0,0,0,0,0,0,0,0,4.7576,4.7577,0,4.7653,4.7654,4.7655,4.7656,4.7655,4.7654,4.7653,4.7733,4.7736,4.7739,0,0,0,0,0,0,0,0,0,0,0,0,0,4.7431,4.7434,4.7576,4.7577,4.7578,4.7653,4.7654,4.7655,4.7656,4.7655,4.7654,4.7652,4.7732,4.7736,4.7739,0,0,0,0,0,0,0,0,0,0,0,0,0,4.75,4.7435,4.7576,4.7587,4.7589,4.7653,4.7654,4.7656,4.7656,4.7655,4.7653,4.7652,4.7731,4.7735,4.774,4.7798,0,0,4.7754,4.7756,0,0,0,0,0,0,0,0,4.7496,4.7505,4.7585,4.7587,4.7589,4.7643,4.7633,4.7703,4.7657,4.7631,4.7653,4.7651,4.7704,4.7711,4.7729,4.7801,4.7805,4.7754,4.7757,4.7759,4.776,0,0,0,0,0,0,0,4.7491,4.7502,4.7607,4.7586,4.7588,4.7589,4.7597,4.7646,4.7675,4.7633,4.7633,4.7642,4.7705,4.7724,4.7731,4.7806,4.7754,4.7758,4.7761,4.7763,4.7933,4.7934,0,0,0,0,0,0,4.7484,4.7498,4.7604,4.7609,4.7538,4.7593,4.7602,4.7627,4.7674,4.768,4.7643,4.7642,4.7717,4.7725,4.7734,4.7806,4.7759,4.7763,4.7766,4.7931,4.7933,4.7935,0,0,0,0,0,0,4.7481,4.7493,4.7601,4.7554,4.7567,4.7597,4.7625,4.763,4.7649,4.7682,4.7688,4.7658,4.7717,4.7727,4.7782,4.7809,4.7765,4.7769,4.7929,4.7931,4.7934,4.795,0,0,0,0,0,0,4.7477,4.7492,4.7514,4.7554,4.757,4.7648,4.7627,4.7632,4.7657,4.7655,4.7697,4.7703,4.7716,4.7775,4.7787,4.7814,4.7773,4.7926,4.793,4.7933,4.7947,4.7953,4.7958,0,0,0,0,0,4.7471,4.7515,4.7515,4.7528,4.7597,4.7649,4.7658,4.7673,4.7659,4.7681,4.7703,4.7701,4.7804,4.7781,4.7794,4.7823,4.7925,4.7929,4.7933,4.7945,4.7952,4.7958,0,0,0,0,0,0,4.7477,4.752,4.7521,4.7578,4.761,4.7649,4.7678,4.7679,4.7716,4.7713,4.773,4.7739,4.7795,4.7814,4.7788,4.7883,4.7863,4.787,4.7868,4.7875,4.788,4.7874,4.7777,0,0,0,0,0,4.7484,4.7522,4.7559,4.7606,4.7622,4.7647,4.767,4.7679,4.7713,4.7726,4.7752,4.7785,4.7825,4.7851,4.7889,4.795,4.796,4.7977,4.7982,4.7986,4.7992,4.8028,4.8036,4.7948,4.7948,4.7948,0,0,4.7501,4.753,4.7552,4.7608,4.7634,4.7673,4.7658,4.7701,4.7731,4.7732,4.7786,4.7807,4.7845,4.7904,4.7931,4.7922,4.8019,4.7991,4.7995,4.7998,4.8033,4.8041,4.8048,4.7951,4.795,4.795,0,0,4.7552,4.7577,4.762,4.7646,4.7685,4.7702,4.7713,4.7752,4.7766,4.782,4.7823,4.786,4.7927,4.7955,4.7978,4.8042,4.8042,4.8054,4.8082,4.8116,4.8123,4.8129,4.8153,4.8162,4.806,4.806,4.806,0,4.7567,4.7627,4.7642,4.7685,4.771,4.7714,4.7759,4.7784,4.7833,4.7851,4.784,4.7927,4.7953,4.8019,4.8035,4.8053,4.8067,4.8049,4.8121,4.8127,4.8133,4.8157,4.8165,4.8061,4.8061,4.8061,4.8061,0,4.7645,4.7687,4.7717,4.7765,4.7794,4.7837,4.786,4.7887,4.7894,4.7913,4.7969,4.8001,4.8047,4.8063,4.807,4.8131,4.8124,4.8117,4.8097,4.8143,4.8165,4.8174,4.8063,4.8062,4.8062,4.8062,0,0,4.77,4.7758,4.7769,4.7792,4.7836,4.7869,4.7914,4.7959,4.7982,4.8017,4.8056,4.8114,4.8109,4.8135,4.8145,4.8175,4.8226,4.8165,4.8166,4.8176,4.8297,4.8303,4.8313,4.8227,4.8228,4.823,4.8294,0,4.7756,4.7835,4.7851,4.792,4.7959,4.7965,4.8004,4.8036,4.8055,4.8092,4.8113,4.8155,4.8143,4.8159,4.819,4.8213,4.8251,4.8209,4.8264,4.8265,4.8254,4.8324,4.833,4.8389,4.8303,4.8304,4.8306,0,4.7832,4.7869,4.7942,4.7983,4.8001,4.8035,4.8079,4.8114,4.8151,4.8163,4.8194,4.8201,4.8249,4.8227,4.8295,4.8266,4.8289,4.8305,4.8307,4.8313,4.8288,4.8332,4.8408,4.8417,4.8319,4.8318,4.8317,0,4.7866,4.7935,4.7988,4.8007,4.8056,4.8081,4.8102,4.8138,4.8165,4.8204,4.8221,4.8265,4.8289,4.8323,4.8343,4.8325,4.8409,4.8388,4.8421,4.8421,4.8438,4.8437,4.852,4.8453,4.8453,4.8453,4.8452,0,4.7927,4.7972,4.8004,4.8036,4.8087,4.8106,4.8156,4.8177,4.821,4.8247,4.8255,4.829,4.8314,4.8353,4.8369,4.8423,4.8434,4.8445,4.8449,4.8445,4.8444,4.8461,4.8457,4.8455,4.8454,4.8454,4.8454,0,4.7974,4.7997,4.8055,4.8097,4.8109,4.8145,4.8182,4.8214,4.8234,4.8282,4.8294,4.8325,4.8372,4.8395,4.8453,4.8464,4.8525,4.8526,4.8512,4.8514,4.8546,4.8543,4.8642,4.8657,4.858,4.8581,4.8581,0,4.8012,4.8046,4.8093,4.8119,4.8141,4.8182,4.821,4.823,4.8259,4.8306,4.8333,4.838,4.8419,4.8494,4.8522,4.8567,4.8569,4.8601,4.8576,4.8571,4.8571,4.8569,4.8573,4.8606,4.8606,4.8607,4.8607,0,4.8077,4.8087,4.8126,4.8171,4.8204,4.8239,4.8274,4.8295,4.8321,4.8354,4.8401,4.8432,4.8492,4.8539,4.8586,4.8609,4.8614,4.8615,4.8625,4.8622,4.8613,4.8619,4.8525,4.8613,4.8612,4.8612,4.8612,4.8611,4.8121,4.8153,4.8191,4.8235,4.8264,4.8297,4.833,4.8355,4.8395,4.8445,4.8455,4.8506,4.8545,4.8609,4.8634,4.8675,4.8668,4.8682,4.8686,4.8689,4.8692,4.8606,4.8684,4.8684,4.8683,4.8683,4.8683,0,4.8188,4.8213,4.8253,4.8303,4.8338,4.8339,4.8378,4.8408,4.8453,4.8488,4.8527,4.8583,4.8629,4.8662,4.8709,4.8736,4.8739,4.8748,4.8746,4.8752,4.8695,4.8681,4.8745,4.8745,4.8745,4.8745,4.8745,4.8745,4.8226,4.8281,4.8295,4.8365,4.839,4.844,4.8463,4.8494,4.8523,4.8585,4.8624,4.8644,4.8679,4.873,4.8773,4.8781,4.8799,4.8808,4.8816,4.8762,4.8756,4.875,4.8737,4.8811,4.8811,4.8871,4.8871,4.8871]},{"header":{"parameterUnit":"m.s-1","parameterCategory":1,"la1":30.2991,"la2":30.254,"lo1":-89.0895,"lo2":-89.0444,"dy":0.0017,"dx":0.0017,"nx":28,"ny":28,"refTime":"2024-04-04T03:00:00:Z","depth":0,"parameterNumber":3,"parameterNumberName":"V-component_of_WINDS"},"data":[0,0,0,0,0,0,0,0,0,0,0,0,0,0,0,0,0,0,0,0,0,0,0,0,0,0,0,0,0,0,0,0,0,0,0,0,0,0,0,0,0,0,0,0,0,0,0,0,0,0,0,0,0,0,0,0,0,0,-0.9703,-0.9704,0,-0.9711,-0.9711,-0.9711,-0.9751,-0.9752,-0.9753,-0.9754,-0.9761,-0.976,-0.9759,0,0,0,0,0,0,0,0,0,0,0,0,0,-0.9724,-0.9723,-0.9703,-0.9704,-0.9704,-0.9711,-0.9711,-0.9712,-0.9751,-0.9752,-0.9754,-0.9755,-0.9761,-0.976,-0.9759,0,0,0,0,0,0,0,0,0,0,0,0,0,-0.9721,-0.9723,-0.9703,-0.9724,-0.9726,-0.9711,-0.9711,-0.9712,-0.9751,-0.9752,-0.9754,-0.9755,-0.9761,-0.976,-0.9759,-0.9724,0,0,-0.9756,-0.9755,0,0,0,0,0,0,0,0,-0.9721,-0.9721,-0.9721,-0.9723,-0.9725,-0.9732,-0.9721,-0.9716,-0.9751,-0.9742,-0.9754,-0.9756,-0.975,-0.975,-0.9748,-0.9724,-0.9725,-0.9756,-0.9755,-0.9755,-0.9754,0,0,0,0,0,0,0,-0.9722,-0.9721,-0.9707,-0.9721,-0.9724,-0.9734,-0.9735,-0.972,-0.9738,-0.9742,-0.9745,-0.9746,-0.9751,-0.9749,-0.9749,-0.9725,-0.9756,-0.9755,-0.9754,-0.9754,-0.9676,-0.9675,0,0,0,0,0,0,-0.9719,-0.972,-0.9706,-0.9707,-0.9727,-0.9732,-0.9734,-0.9728,-0.9738,-0.9741,-0.9745,-0.9748,-0.975,-0.975,-0.9749,-0.9711,-0.9755,-0.9754,-0.9753,-0.9677,-0.9676,-0.9674,0,0,0,0,0,0,-0.9719,-0.9717,-0.9706,-0.9714,-0.9714,-0.973,-0.9724,-0.9728,-0.9726,-0.974,-0.9743,-0.9739,-0.9751,-0.975,-0.9731,-0.9711,-0.9753,-0.9752,-0.9679,-0.9677,-0.9675,-0.9632,0,0,0,0,0,0,-0.9719,-0.9717,-0.9703,-0.9714,-0.9713,-0.9687,-0.9723,-0.9727,-0.9724,-0.9728,-0.9735,-0.9738,-0.9752,-0.9732,-0.973,-0.9711,-0.9751,-0.9681,-0.9678,-0.9675,-0.9635,-0.9629,-0.9623,0,0,0,0,0,-0.972,-0.969,-0.9702,-0.9701,-0.9697,-0.9686,-0.9686,-0.9703,-0.9722,-0.9709,-0.9718,-0.9738,-0.9714,-0.973,-0.9727,-0.9708,-0.9682,-0.9679,-0.9676,-0.9638,-0.963,-0.9623,0,0,0,0,0,0,-0.9676,-0.9692,-0.9706,-0.9678,-0.9681,-0.9693,-0.9676,-0.9694,-0.969,-0.9694,-0.9716,-0.9717,-0.9695,-0.9699,-0.9717,-0.9676,-0.9701,-0.9698,-0.9674,-0.9666,-0.966,-0.966,-0.9751,0,0,0,0,0,-0.9663,-0.9653,-0.9667,-0.9642,-0.9643,-0.9659,-0.9655,-0.9669,-0.9672,-0.9673,-0.9681,-0.9683,-0.9677,-0.9672,-0.9666,-0.9636,-0.964,-0.9622,-0.9616,-0.9611,-0.9607,-0.9595,-0.9587,-0.9663,-0.9663,-0.9664,0,0,-0.9636,-0.9643,-0.9636,-0.9633,-0.9637,-0.9627,-0.966,-0.9647,-0.964,-0.9671,-0.9654,-0.966,-0.9664,-0.964,-0.9629,-0.9643,-0.9587,-0.9607,-0.9602,-0.9602,-0.959,-0.9583,-0.9577,-0.9661,-0.9662,-0.9662,0,0,-0.9582,-0.9586,-0.9566,-0.957,-0.9575,-0.9587,-0.9583,-0.9593,-0.9598,-0.9582,-0.9606,-0.9598,-0.9585,-0.9588,-0.9587,-0.9538,-0.9556,-0.9535,-0.9504,-0.9491,-0.9485,-0.948,-0.9464,-0.9458,-0.9532,-0.9532,-0.9532,0,-0.9547,-0.9533,-0.9554,-0.9541,-0.954,-0.9569,-0.955,-0.9552,-0.9555,-0.9554,-0.9569,-0.9556,-0.956,-0.9539,-0.9527,-0.9525,-0.9522,-0.9535,-0.9484,-0.9479,-0.9475,-0.946,-0.9454,-0.9529,-0.953,-0.953,-0.953,0,-0.9492,-0.9482,-0.9465,-0.9469,-0.9467,-0.945,-0.9469,-0.9464,-0.9479,-0.9489,-0.9473,-0.948,-0.9478,-0.9473,-0.9486,-0.9454,-0.9463,-0.948,-0.9507,-0.9465,-0.9451,-0.9446,-0.9526,-0.9527,-0.9527,-0.9528,0,0,-0.9408,-0.9426,-0.942,-0.9423,-0.9433,-0.9426,-0.9412,-0.941,-0.9406,-0.9408,-0.9398,-0.9388,-0.9406,-0.9405,-0.942,-0.9408,-0.9372,-0.9428,-0.9429,-0.9419,-0.9339,-0.9326,-0.9319,-0.9384,-0.9383,-0.9382,-0.9339,0,-0.9358,-0.9336,-0.9355,-0.9329,-0.9321,-0.935,-0.9338,-0.9343,-0.9353,-0.9349,-0.936,-0.9353,-0.9376,-0.9377,-0.9367,-0.9378,-0.9356,-0.9381,-0.9376,-0.9375,-0.9374,-0.9312,-0.9297,-0.9256,-0.9334,-0.9333,-0.9332,0,-0.9296,-0.9297,-0.927,-0.9285,-0.9282,-0.9271,-0.9273,-0.9268,-0.9275,-0.9283,-0.9284,-0.9303,-0.9291,-0.9317,-0.9302,-0.9319,-0.9318,-0.9324,-0.9322,-0.9323,-0.9351,-0.9312,-0.9244,-0.9238,-0.9324,-0.9324,-0.9325,0,-0.924,-0.9235,-0.9219,-0.9221,-0.9236,-0.9228,-0.9234,-0.9243,-0.9242,-0.9243,-0.9243,-0.9243,-0.9243,-0.9243,-0.9262,-0.9278,-0.9245,-0.9272,-0.9253,-0.9253,-0.9245,-0.9245,-0.9177,-0.9242,-0.9242,-0.9242,-0.9243,0,-0.9183,-0.9166,-0.9194,-0.9185,-0.9167,-0.919,-0.9173,-0.9182,-0.919,-0.9183,-0.9207,-0.9201,-0.9225,-0.9221,-0.9235,-0.9222,-0.9222,-0.9229,-0.9233,-0.9227,-0.9227,-0.9227,-0.9231,-0.9241,-0.9241,-0.9242,-0.9242,0,-0.9117,-0.9135,-0.9121,-0.9137,-0.9141,-0.9128,-0.9142,-0.9135,-0.9148,-0.9139,-0.9138,-0.9158,-0.9155,-0.9174,-0.9173,-0.9183,-0.9164,-0.9172,-0.9162,-0.9165,-0.9145,-0.9147,-0.9075,-0.9068,-0.9137,-0.9136,-0.9136,0,-0.9079,-0.9068,-0.9084,-0.9082,-0.9087,-0.9082,-0.9082,-0.9105,-0.9104,-0.9113,-0.9105,-0.9104,-0.9105,-0.9099,-0.9113,-0.9114,-0.9124,-0.9099,-0.9124,-0.9119,-0.9125,-0.9126,-0.9126,-0.9093,-0.9092,-0.9092,-0.9091,0,-0.9012,-0.9022,-0.9021,-0.9024,-0.9023,-0.9026,-0.9031,-0.9028,-0.9053,-0.9051,-0.9049,-0.9049,-0.9051,-0.905,-0.9055,-0.9061,-0.9081,-0.9083,-0.9079,-0.9073,-0.9069,-0.9073,-0.9148,-0.9085,-0.9085,-0.9086,-0.9086,-0.9086,-0.896,-0.8952,-0.8963,-0.8962,-0.8968,-0.8973,-0.8967,-0.898,-0.8979,-0.8982,-0.8996,-0.8992,-0.9002,-0.901,-0.9015,-0.9013,-0.9025,-0.9019,-0.9017,-0.9016,-0.9013,-0.9068,-0.9014,-0.9014,-0.9014,-0.9014,-0.9015,0,-0.8895,-0.8904,-0.8903,-0.891,-0.8909,-0.8929,-0.8936,-0.8934,-0.893,-0.8938,-0.8939,-0.8938,-0.8939,-0.8954,-0.8957,-0.8952,-0.8962,-0.8953,-0.8954,-0.8955,-0.9001,-0.9005,-0.8945,-0.8945,-0.8945,-0.8945,-0.8945,-0.8945,-0.8861,-0.8849,-0.8861,-0.8853,-0.8863,-0.886,-0.8862,-0.8867,-0.8874,-0.8872,-0.8873,-0.8884,-0.8895,-0.8899,-0.8901,-0.8906,-0.8907,-0.8895,-0.8902,-0.8945,-0.8952,-0.8958,-0.8962,-0.8894,-0.8894,-0.8857,-0.8857,-0.8856]}]]